Showing default

ABS 2A, 41588

Orbit data source: Space-Track

ABS 2A, 41588 is a payload satellite owned by ABS (HK) (AE) in GEO that was launched on Wed, 15 Jun 2016 UTC via an FALCON 9 launch vehicle from the Air Force Eastern Test Range (AFETR). Payload-class satellites include a variety of spacecraft equipped with specific instruments for various scientific and technological missions. These include communications satellites like Starlink; space stations such as the ISS; scientific satellites like the Hubble; Earth observation satellites from companies like Planet Labs, Umbra, and HawkEye 360; GPS; miniature CubeSats for education and research; and military/defense satellites.

Not visible in the next 10 days
Identifier
41588, 2016-038A
Orbit
GEO
Country
Flag of AEAE / ABS
Related business
Manufacturer
Boeing/ES
Mission
Operational Commercial Communications
Bus & Motor
BSS-702SP, XIPS-25
Mass
1,954 kg wet, ~1,500 kg dry
Launch date (UTC)
2016-06-15 (10 years ago)
Launch vehicle
FALCON 9
Launch site
Air Force Eastern Test Range (AFETR)
Object type
Payload
Rocket body
Debris
Shape & HBR
Box + 2 Pan, 20.0 m
Radar Cross Section
33.227 m², Large (>1 m²)

Expand to show TLE details & history
Last TLE update: 2 days ago

TLE from 2 days ago
0 ABS 2A
1 41588U 16038A   26171.40684536 -.00000089  00000-0  00000+0 0  9994
2 41588   0.0178  20.6845 0001977   0.5247 108.6147  1.00272219 36742
Epoch: 2026-06-20T09:45Z
TLE epoch observation values (Epoch: 2026-06-20T09:45:51.439Z)
Latitude
0.03252°
Longitude
74.77137°
Altitude
35,788.595 km
Speed
3.075 km/s
True Right ascension
08h 39m 25s
True Declination
0° 01' 57"
Sunlit
Object was in daylight at epoch
Visualization orbit readout
Latitude
Unknown
Longitude
Unknown
Altitude
Unknown
Speed
Unknown
Apparent Right ascension
Unknown
Apparent Declination
Unknown
Sunlit
N/A
Visualization observer readout
Local Sidereal Time
21:37:34
Azimuth
Unknown
Elevation
Unknown
Doppler factor
Unknown
Orbital elements
Apogee altitude
35,795.88 km
Perigee altitude
35,779.208 km
Semi-major axis
42,165.681 km
Eccentricity
0.0002
Inclination
0.0178°
RAAN
20.6845°
Arg. of periapsis
0.5247°
True anomaly
108.63617°
Mean anomaly
108.6147°
Eccentric anomaly
108.62543°
Mean motion
0.25067 °/min
Orbital period
1,436.14 mins
BSTAR
0
Loading maneuver chart data...
Computing Atmospheric mass density...
Loading historical data...
Loading historical data...
Loading historical data...
Loading historical data...
Loading historical data...
Loading historical data...
Loading historical data...
Other satellites on launch #38 in the year 2016 (2016-06-15 UTC)

Documentation

Showing up to 5 results
|